AirNav   Bose ProFlight Series 2 Headset
 
 573 users online  

KCYW Clay Center Municipal Airport
Clay Center, Kansas, USA

GOING TO CLAY CENTER?


FAA INFORMATION EFFECTIVE 02 JANUARY 2020

Location

FAA Identifier: CYW
Lat/Long: 39-23-13.7000N 097-09-26.0000W
39-23.228333N 097-09.433333W
39.3871389,-97.1572222
(estimated)
Elevation: 1208.9 ft. / 368.5 m (surveyed)
Variation: 04E (2010)
From city: 2 miles W of CLAY CENTER, KS
Time zone: UTC -6 (UTC -5 during Daylight Saving Time)
Zip code: 67432

Airport Operations

Airport use: Open to the public
Activation date: 04/1942
Control tower: no
ARTCC: KANSAS CITY CENTER
FSS: WICHITA FLIGHT SERVICE STATION
NOTAMs facility: ICT (NOTAM-D service available)
Attendance: 0800-1700
FOR SVC AFT DUSK CALL CELL 785-757-4551.
Wind indicator: lighted
Segmented circle: yes
Lights: RY 17/35 MIRL PRESET LOW INTST DUSK-2200; TO INCR INTST ACTVT - CTAF. AFT 2200 ACTVT - CTAF. ACTIVE REILS AND PAPIS - CTAF. RWY 17/35 ACTVT REILS AND PAPIS -CTAF.
Beacon: white-green (lighted land airport)
Operates sunset to sunrise.

Airport Communications

CTAF/UNICOM: 122.8
WX AWOS-3: 119.95 (785-777-2509)
MARSHALL AAF GCA APPROACH: 121.25
MARSHALL AAF GCA DEPARTURE: 121.25
  • APCH/DEP SVC PRVDD BY KANSAS CITY ARTCC ON FREQS 127.35/257.975 (MANHATTAN RCAG) WHEN MARSHALL APCH CTL CLSD.

Nearby radio navigation aids

VOR radial/distance  VOR name  Freq  Var
MHKr299/26.9MANHATTAN VOR/DME110.2004E
FRIr325/(28.6)FORT RILEY VOR109.4006E
SLNr031/35.1SALINA VORTAC117.1007E

 
NDB name  Hdg/Dist  Freq  Var  ID
CLAY CENTERat field36204ECYW -.-. -.-- .--
CAVALRY316/27.531406ECVY -.-. ...- -.--

Airport Services

Fuel available: 100LL
Parking: hangars and tiedowns
Airframe service: MAJOR
Powerplant service: MAJOR
Bottled oxygen: NONE
Bulk oxygen: NONE

Runway Information

Runway 17/35

Dimensions: 4197 x 75 ft. / 1279 x 23 m
Surface: asphalt, in good condition
Weight bearing capacity: 
Single wheel: 12.0
Double wheel: 15.0
Runway edge lights: medium intensity
RUNWAY 17  RUNWAY 35
Latitude: 39-23.573603N39-22.882590N
Longitude: 097-09.422507W097-09.443152W
Elevation: 1208.7 ft.1206.7 ft.
Traffic pattern: leftleft
Runway heading: 177 magnetic, 181 true357 magnetic, 001 true
Displaced threshold: 202 ft.227 ft.
Markings: numbers only, in good conditionnumbers only, in good condition
Visual slope indicator: 2-light PAPI on left (2.75 degrees glide path)2-light PAPI on left (2.75 degrees glide path)
Runway end identifier lights: yesyes
Touchdown point: yes, no lightsyes, no lights
Obstructions: 7 ft. other, 335 ft. from runway, 19:1 slope to clear
RWY 17 22:1 TO DSPLCD THR.
15 ft. road, 465 ft. from runway, 17:1 slope to clear

Airport Ownership and Management from official FAA records

Ownership: Publicly-owned
Owner: CITY OF CLAY CENTER
427 COURT ST.
CLAY CENTER, KS 67432
Phone 785-632-5454
Manager: SCOTT HEINEN
1226 104TH ROAD
SENECA, KS 66538
Phone (800) 760-4964

Airport Operational Statistics

Aircraft based on the field: 11
Single engine airplanes: 11
    
Aircraft operations: avg 85/day *
39% local general aviation
32% transient general aviation
29% military
* for 12-month period ending 17 September 2019

Additional Remarks

FOR CD CTC MARSHALL APCH AT 785-239-2118. WHEN MARSHALL APCH IS CLSD, CTC KANSAS CITY ARTCC AT 913-254-8508.

Instrument Procedures

NOTE: All procedures below are presented as PDF files. If you need a reader for these files, you should download the free Adobe Reader.

NOT FOR NAVIGATION. Please procure official charts for flight.
FAA instrument procedures published for use from 02 January 2020 at 0901Z to 30 January 2020 at 0900Z.

 
IAPs - Instrument Approach Procedures
RNAV (GPS) RWY 17   download (167KB)
RNAV (GPS) RWY 35   download (186KB)
NDB RWY 35   download (161KB)
NOTE: Special Take-Off Minimums/Departure Procedures apply   download (147KB)

Other nearby airports with instrument procedures:

K38 - Washington County Veteran's Memorial Airport (21 nm N)
KCNK - Blosser Municipal Airport (25 nm NW)
3JC - Freeman Field Airport (25 nm SE)
KMHK - Manhattan Regional Airport (27 nm SE)
KFRI - Marshall Army Airfield (27 nm SE)
 
Loc | Ops | Rwys | IFR | FBO | Links
Com | Nav | Svcs | Stats | Notes

Kansas City Aviation Department
 
Area around KCYW (Clay Center Municipal Airport)
 
Road maps at: MapQuest Bing Google
 
Aerial photo
WARNING: Photo may not be current or correct
Aerial photo of KCYW (Clay Center Municipal Airport)
Do you have a better or more recent aerial photo of Clay Center Municipal Airport that you would like to share? If so, please send us your photo.

 
Sectional chart

 
Airport distance calculator
Flying to Clay Center Municipal Airport? Find the distance to fly.

From to KCYW

Sunrise and sunset
Times for 18-Jan-2020
 Local
(UTC-6)
 Zulu
(UTC)
Morning civil twilight07:1813:18
Sunrise07:4713:47
Sunset17:3223:32
Evening civil twilight18:0100:01

Current date and time
Zulu (UTC)  18-Jan-2020 07:37:07
Local (UTC-6)  18-Jan-2020 01:37:07
 
METAR
KCNK 
25nm NW 
180655Z AUTO 27013KT 8SM FEW003 BKN046 OVC075 02/01 A2985 RMK AO2 SLP117 T00170006
KMHK 
27nm SE 
180720Z AUTO 28008KT 10SM BKN006 OVC011 03/02 A2983 RMK AO2 CIG 004V007 T00330022
KFRI 
28nm SE 
180711Z AUTO 30011G15KT 10SM OVC006 04/04 A2982 RMK AO2 SLP104 $
KMYZ 
37nm NE 
180715Z AUTO 31007KT 10SM SCT006 BKN060 OVC080 01/01 A2981 RMK AO2
KSLN 
43nm SW 
180653Z AUTO 27010G17KT 10SM FEW070 OVC090 03/02 A2987 RMK AO2 SLP123 T00280017
TAF
KMHK 
27nm SE 
180532Z 1806/1906 25008KT 4SM -DZ BR OVC004 FM180700 26012G21KT P6SM VCSH BKN005 FM180800 30015G29KT P6SM BKN010 FM181100 31021G36KT P6SM SCT030
KFRI 
28nm SE 
172327Z 1723/1819 17014G23KT 9999 OVC007 QNH2982INS BECMG 1807/1808 31015G35KT 9999 NSW SCT006 SCT020 520002 QNH2976INS BECMG 1812/1813 31015G35KT 9999 SKC 520002 QNH2990INS TX08/1806Z TNM02/1813Z LAST NO AMD AFT 1723 NEXT 2105
NOTAMs
Click for the latest NOTAMs
NOTAMs are issued by the DoD/FAA and will open in a separate window not controlled by AirNav.

 

 
 

Would you like to see your business listed on this page?

 If your business provides an interesting product or service to pilots, flight crews, aircraft, or users of the Clay Center Municipal Airport, you should consider listing it here.  To start the listing process, click on the button below
 
Add a business
 

Other Pages about Clay Center Municipal Airport

Update a link
 
Copyright © AirNav, LLC. All rights reserved. Privacy Policy  Contact